Location: ??
(35.5052°N, 139.7262°E)
Time: 19:42:43
(UTC+00:00)

Cosmos 1932 - Pass Details

Date: 17 October 2021
Orbit: 943 x 987 km, 65.0° (Epoch: 01 December)

Event Time Altitude Azimuth Distance (km) Brightness Sun altitude
Rises 09:58:03 0° 346° (NNW) 3,614 7.7 -24.0°
Reaches altitude 10° 10:02:09 10° 11° (NNE) 2,671 6.7 -24.9°
Enters shadow 10:03:30 12° 24° (NNE) 2,495 6.5 -25.2°
